Location: Friaudour
(46.0460°N, 1.2873°E)
Time: 08:49:13
(UTC+00:00)

Meteor 1-19 Rocket - Pass Details

Date: 14 July 2020
Orbit: 810 x 924 km, 81.2° (Epoch: 14 August)

Event Time Altitude Azimuth Distance (km) Brightness Sun altitude
Rises 01:16:40 0° 347° (NNW) 3,450 8.4 -20.2°
Reaches altitude 10° 01:19:08 10° 347° (NNW) 2,492 7.5 -20.0°
Maximum altitude 01:24:46 80° 261° (W) 852 4.1 -19.7°
Enters shadow 01:27:12 35° 179° (S) 1,319 4.7 -19.5°
